GFSNW_500_rhum_000.txt.gz
RH
9 5 3 3 3 4 5 6 9 13 22 28 26 21 24 28 32 34 37 36 32 30 33 38 36 33 29 30 38 47 49 47 45 43 39 38 39 38 38 37 36 40 48 38
9 6 5 4 4 4 4 5 7 14 22 35 31 29 27 27 29 27 32 37 40 41 43 42 44 47 49 49 45 39 38 37 37 38 38 38 40 45 56 52 46 49 50 53
7 8 8 7 7 7 7 7 8 11 17 28 25 20 18 18 16 17 21 24 26 26 23 25 28 28 31 32 37 42 46 54 53 47 40 40 47 58 54 49 46 51 55 47
10 9 9 8 8 8 7 6 7 11 14 16 15 14 14 15 16 18 19 20 21 32 36 39 44 53 58 56 57 56 57 59 66 67 71 68 60 58 57 58 55 53 61 56
12 11 11 10 10 10 10 10 11 10 12 14 14 16 17 18 18 18 20 23 29 30 36 38 40 38 47 47 46 56 59 59 59 57 63 62 62 68 66 68 72 68 64 65
13 12 12 12 11 11 12 14 12 11 11 12 14 16 18 20 19 20 23 26 27 31 31 30 28 28 27 31 36 41 60 65 64 65 63 61 66 63 72 69 72 72 63 55
12 13 13 14 14 12 12 14 15 15 14 13 13 13 14 17 18 20 23 25 26 27 23 23 25 32 35 49 48 56 75 73 68 65 67 66 78 65 64 65 69 76 64 57
14 13 14 15 15 14 12 13 15 17 16 16 15 14 13 15 17 19 19 20 18 18 19 21 27 44 53 53 52 56 70 67 66 63 67 68 74 80 75 67 59 66 63 60
18 16 15 14 15 16 16 13 13 15 18 19 20 19 18 17 17 16 16 16 18 18 20 23 32 53 62 73 76 72 68 67 70 70 79 69 81 83 77 68 57 57 56 55
23 18 15 14 14 15 15 15 14 14 15 17 20 22 22 22 22 21 20 20 20 22 24 25 40 59 68 71 73 70 72 78 79 86 81 70 80 82 75 61 52 50 60 59
31 25 19 16 13 11 12 13 14 15 15 16 18 21 23 24 24 23 22 20 21 24 32 34 48 58 66 65 64 70 73 78 84 76 84 81 80 76 66 63 60 72 70 63
39 33 26 20 17 17 17 16 16 16 16 17 18 20 22 23 22 21 16 17 31 39 40 48 57 67 69 66 54 63 66 78 74 72 75 91 85 82 73 73 76 74 70 62
46 44 36 28 22 19 19 20 20 20 19 20 20 22 22 20 17 13 30 52 52 53 55 59 67 73 73 66 52 57 61 72 61 65 78 84 81 89 84 96 90 82 76 70
40 44 43 37 29 24 22 24 25 26 26 24 22 21 18 14 11 25 45 50 52 54 60 62 70 78 74 69 66 61 84 69 79 70 77 72 78 79 84 87 87 82 71 64
44 40 40 38 36 32 32 30 31 32 29 23 20 16 13 12 26 55 55 56 55 64 70 72 73 79 92 77 68 69 99 98 84 68 70 80 73 73 77 82 77 59 39 37
36 39 40 39 41 42 41 40 37 33 28 24 22 25 39 45 53 60 59 66 80 84 79 70 70 92 100 77 63 77 94 89 77 73 78 81 79 78 81 70 58 50 54 52
46 26 23 22 22 24 26 26 26 26 26 27 26 36 53 58 60 56 75 99 96 90 84 71 75 95 100 80 75 100 87 86 89 86 78 76 76 70 62 55 56 60 47 22
76 56 46 36 46 57 51 65 58 38 37 38 38 50 63 72 86 93 95 98 97 84 79 72 74 79 93 85 100 100 95 88 82 78 80 76 65 60 61 63 53 36 24 17
100 100 96 95 80 68 65 69 76 66 54 49 68 72 62 60 79 96 98 98 97 90 88 88 84 82 94 100 100 99 96 90 84 75 70 68 67 64 58 47 30 20 21 25
100 100 100 94 95 100 98 100 100 100 96 90 72 66 69 78 91 97 100 94 99 96 82 98 94 90 100 100 98 88 79 75 76 72 65 60 60 50 37 24 23 28 31 38
100 100 100 97 100 100 100 100 100 94 77 76 73 83 99 98 100 100 99 90 94 84 85 95 86 90 100 91 84 80 78 72 58 58 62 58 36 23 20 19 27 39 42 46
100 100 100 100 100 100 100 97 95 86 82 75 94 100 100 99 100 100 94 92 92 91 86 87 80 86 82 80 76 69 63 60 66 65 39 25 22 23 30 36 42 46 44 43
100 100 100 100 100 99 92 83 86 100 100 100 100 100 100 97 100 100 100 95 91 89 86 83 87 82 73 68 65 67 69 60 35 28 25 23 29 38 44 48 51 44 36 23
100 100 100 100 99 95 93 98 100 100 100 100 100 100 99 100 100 98 97 96 90 86 80 73 69 67 70 74 68 54 37 33 27 26 28 33 44 45 40 40 36 25 20 28
100 100 100 96 97 100 100 100 100 100 99 99 95 90 88 86 86 86 82 78 69 60 61 74 74 73 62 48 40 36 29 27 28 38 46 40 34 34 32 25 23 30 31 24
98 98 92 98 100 100 100 98 100 100 96 90 83 79 74 76 81 79 84 94 100 94 81 66 56 46 40 38 38 35 32 39 44 36 33 32 30 27 25 25 32 26 23 22
89 80 93 100 100 100 100 99 95 94 88 85 89 82 94 85 81 82 83 71 63 57 51 44 46 48 51 46 41 44 46 40 35 34 30 29 34 35 36 30 22 22 28 31

GFSNW_500_rhum_006.txt.gz
RH
2 2 2 2 4 5 4 4 4 4 5 5 4 2 2 11 16 25 27 25 25 26 26 28 32 33 26 27 30 34 41 42 43 42 43 46 48 48 47 47 45 51 57 56
8 2 2 3 3 4 4 3 4 4 4 4 3 3 17 21 21 25 21 18 22 24 25 23 30 32 34 35 36 37 40 42 42 40 39 40 46 52 50 51 50 57 54 64
22 4 2 3 3 3 3 3 3 4 4 3 5 16 25 22 26 23 17 11 15 18 22 31 28 33 32 29 32 32 39 46 50 50 50 48 53 57 58 57 59 61 69 63
27 15 3 2 3 3 3 3 3 3 3 5 12 24 28 28 26 19 11 12 14 17 24 22 22 19 17 21 23 26 38 49 45 47 48 44 48 61 58 61 64 68 79 77
26 25 10 4 3 3 3 3 3 3 6 8 11 25 31 22 14 12 12 13 16 17 19 18 16 17 18 18 22 25 30 35 37 39 41 44 42 57 66 65 74 78 83 86
24 23 20 10 6 3 3 4 6 6 7 9 12 22 23 14 12 13 14 15 16 17 17 15 16 18 17 18 22 26 31 37 39 34 39 42 48 48 52 64 74 79 82 76
24 21 20 16 12 8 6 8 10 10 10 9 13 15 15 12 13 15 14 15 16 18 17 17 18 17 17 19 23 28 41 41 37 33 41 40 48 52 56 63 72 72 69 64
26 23 19 14 10 10 10 11 10 9 9 9 11 12 14 14 14 13 14 15 16 16 16 16 17 18 20 21 25 36 43 38 35 37 38 41 50 46 54 55 57 52 59 53
31 25 21 17 13 12 11 12 12 12 13 12 13 14 14 14 14 14 14 15 16 18 18 20 20 22 22 22 26 40 38 38 39 40 48 51 55 48 48 46 49 52 54 51
33 28 26 20 16 13 13 12 14 15 16 16 14 14 15 15 16 17 18 19 22 23 23 23 23 23 23 21 28 34 37 40 43 49 54 55 62 58 52 55 53 56 56 58
34 32 27 23 20 18 18 16 14 14 16 17 17 17 18 18 19 20 21 22 23 23 23 24 24 23 21 19 25 32 38 45 49 51 61 62 66 57 61 58 59 60 60 67
38 35 31 25 21 20 20 19 18 16 15 16 16 16 17 18 19 20 20 20 21 21 22 23 22 20 16 13 16 34 50 53 56 65 69 74 66 64 66 63 61 65 73 74
30 40 36 31 27 22 19 18 18 18 18 17 17 17 16 15 16 16 17 18 20 21 22 22 20 17 12 16 32 49 61 59 56 62 78 66 69 73 76 76 81 83 84 79
25 37 44 40 36 30 24 20 18 16 16 16 16 17 16 16 16 16 17 19 21 22 23 22 19 14 17 38 52 61 80 65 68 71 82 78 80 82 81 79 80 82 77 86
26 34 43 48 44 39 37 32 25 20 20 16 16 16 15 16 18 19 20 22 25 28 26 23 21 22 42 47 50 78 90 84 75 77 71 71 70 73 81 86 89 92 84 73
30 31 35 43 52 54 53 47 40 34 26 23 21 22 21 21 22 23 26 30 34 32 28 27 27 35 54 45 52 90 93 85 78 73 71 72 73 77 82 86 80 73 73 75
45 39 39 41 46 52 56 48 54 54 50 42 33 28 25 24 26 29 36 42 41 36 32 30 35 54 64 65 77 100 82 82 74 72 76 71 72 76 77 76 74 73 72 69
81 53 51 48 49 50 44 48 59 62 60 54 45 38 39 44 44 46 46 41 35 34 40 46 52 58 74 83 100 98 89 81 79 76 76 78 80 82 80 76 74 69 63 60
100 93 70 66 50 43 46 58 67 65 58 48 40 40 42 44 47 43 39 46 56 58 60 76 88 85 89 100 99 92 86 85 88 87 84 84 83 80 75 69 64 62 56 35
100 100 99 85 87 90 84 88 63 57 61 42 34 36 36 31 33 49 77 82 82 81 82 91 76 67 89 100 95 91 93 94 89 88 86 78 69 67 68 68 61 44 22 13
100 100 100 97 100 100 100 100 89 68 58 59 50 49 53 55 52 61 73 86 86 89 83 85 70 68 98 97 95 93 94 92 86 76 70 69 72 70 64 52 32 16 13 16
97 99 100 100 100 100 100 100 98 88 82 65 66 80 90 84 88 98 100 100 99 88 79 78 69 80 98 98 96 95 92 83 76 72 70 72 69 59 42 24 14 16 18 17
100 100 100 100 99 100 100 94 88 85 73 73 85 92 95 96 100 100 100 100 99 99 86 75 84 100 98 97 99 91 84 76 70 71 72 63 50 33 19 21 22 19 17 17
100 100 100 100 100 100 100 98 93 99 100 100 99 100 97 100 100 100 100 100 100 97 94 100 100 97 100 98 88 86 79 72 71 67 56 41 24 18 24 26 22 19 17 18
100 100 100 100 100 100 100 100 100 100 100 100 100 100 100 100 100 100 99 100 99 99 100 96 92 89 85 82 82 82 76 71 61 47 32 27 27 25 25 24 21 20 21 25
100 100 100 100 100 100 100 100 100 100 99 100 100 100 100 100 100 98 99 100 100 100 95 89 85 85 87 88 83 75 67 52 35 26 29 29 28 27 23 22 22 25 30 28
97 100 100 100 100 100 100 100 100 100 100 100 100 100 100 100 100 100 100 100 97 94 91 87 84 90 89 81 71 50 37 33 31 29 33 32 31 26 25 24 26 34 34 35

GFSNW_500_rhum_009.txt.gz
RH
2 2 6 9 9 10 10 9 8 6 6 6 6 6 6 3 2 14 23 25 18 20 20 22 25 24 24 30 33 34 34 34 35 36 37 38 40 43 44 50 52 49 54 53
3 3 3 6 8 8 7 7 6 5 5 5 4 5 4 2 9 17 24 23 23 22 20 18 24 30 33 33 32 29 30 36 33 25 23 23 32 37 40 45 50 55 59 69
10 3 3 2 4 4 4 4 5 4 4 4 4 4 3 4 21 20 22 18 14 14 15 23 26 33 26 24 25 28 28 28 31 34 38 31 35 41 41 42 42 45 65 66
30 6 3 4 3 2 3 3 4 3 4 4 4 4 3 16 23 22 23 14 12 13 15 22 18 16 16 17 20 24 25 27 32 38 38 31 34 41 43 48 50 49 59 67
34 24 4 3 3 2 2 3 4 3 4 4 3 3 8 20 24 26 24 12 13 13 14 17 16 14 16 18 19 21 23 27 36 41 33 28 30 37 38 41 49 52 61 66
38 30 22 5 4 3 4 3 4 4 4 3 3 7 15 24 29 25 14 12 13 13 14 14 13 13 15 17 20 21 22 26 32 37 28 26 30 32 40 41 42 51 52 47
40 30 27 21 7 4 4 4 4 3 4 4 6 10 13 18 22 14 11 13 13 14 14 14 14 15 16 17 20 21 22 23 25 24 22 29 32 38 46 46 48 47 49 46
46 31 25 24 18 7 4 4 4 4 4 7 10 10 12 21 19 12 12 13 13 14 16 16 16 17 18 20 21 22 22 22 22 24 25 36 37 40 54 58 57 52 56 59
52 39 24 23 22 14 12 8 6 7 8 11 13 10 12 15 15 13 13 13 13 15 16 16 18 19 20 22 22 22 22 20 22 23 35 42 44 48 52 56 62 60 60 52
49 44 30 25 22 17 12 11 12 14 13 16 12 10 12 14 16 13 14 13 15 16 17 18 20 22 23 23 23 24 22 20 23 24 44 46 48 49 51 61 75 70 64 62
42 42 37 31 27 18 15 16 16 16 14 15 15 13 14 16 14 14 15 16 18 18 19 21 22 23 23 24 24 24 21 17 18 38 49 48 50 52 52 61 66 65 69 65
39 40 40 38 31 24 19 16 15 15 16 16 18 17 15 15 16 16 17 18 19 19 20 21 22 23 23 23 23 23 21 18 37 50 58 70 60 62 61 64 72 68 63 57
24 35 37 36 35 31 26 21 19 16 15 16 17 17 19 18 18 18 18 18 18 19 20 20 20 20 21 21 22 23 24 37 41 40 70 66 66 67 63 67 62 59 59 59
18 21 35 40 37 34 30 26 24 21 20 16 16 17 18 19 18 19 19 18 19 19 19 18 17 20 19 22 25 23 29 35 46 42 71 72 81 70 69 66 64 64 63 62
22 18 20 36 43 38 33 31 28 24 22 19 20 20 19 19 19 20 20 19 20 19 18 18 20 21 27 24 25 27 36 48 53 68 80 86 80 80 72 67 72 67 68 69
47 32 22 22 35 48 47 37 30 28 24 21 18 21 20 19 19 19 19 20 21 21 21 22 22 27 34 29 30 32 41 58 69 82 89 90 88 82 83 83 76 73 70 66
98 61 33 26 28 36 46 52 51 52 45 36 29 23 22 23 22 23 24 26 25 28 26 24 32 38 38 34 34 56 69 79 91 98 98 92 89 81 78 80 75 69 64 59
85 59 42 36 29 28 32 43 57 68 63 58 43 27 34 42 39 40 39 38 38 36 38 38 42 40 38 39 56 78 92 84 87 92 91 87 91 92 84 80 76 67 60 56
100 93 100 71 34 26 29 42 52 61 58 59 41 41 42 46 47 53 56 57 55 50 46 44 40 40 51 77 96 91 95 92 88 86 85 84 87 86 88 82 71 65 61 59
100 100 100 92 89 85 56 52 47 45 43 31 25 28 33 40 44 49 51 52 49 40 35 38 42 48 66 97 100 99 97 94 88 82 81 84 87 92 85 75 68 66 58 49
100 100 98 82 98 100 99 86 79 64 48 40 44 50 46 48 56 75 83 71 68 62 53 58 50 50 76 94 98 98 98 98 96 96 92 92 99 91 78 70 66 60 42 16
100 100 97 99 100 100 100 99 96 82 71 55 46 67 81 70 64 72 88 100 100 92 77 77 65 72 87 87 88 89 93 99 100 98 100 100 91 77 71 64 56 34 16 15
100 100 100 100 99 100 100 96 76 68 58 69 84 88 89 87 98 100 100 100 99 88 75 72 88 87 94 92 96 100 100 99 94 94 98 87 78 70 63 48 26 18 16 19
100 100 100 100 100 100 100 87 77 82 80 75 75 82 85 94 100 100 100 100 99 96 88 98 100 100 100 100 100 100 98 97 97 94 83 74 68 60 40 25 21 19 18 20
100 100 100 100 100 100 100 100 100 100 96 92 87 99 100 100 100 100 99 100 100 96 100 100 100 100 100 100 97 99 96 90 86 81 74 69 52 32 23 23 22 21 21 21
87 100 100 100 100 100 100 100 100 100 100 100 100 100 99 100 100 100 100 100 100 100 100 100 100 100 100 100 98 94 87 81 79 78 64 40 29 27 25 22 23 22 23 22
10 56 100 100 100 100 100 100 100 100 100 100 100 100 100 100 100 100 100 100 100 100 100 100 100 100 100 96 91 85 83 78 63 43 35 33 30 27 26 22 21 21 24 24

GFSNW_500_rhum_015.txt.gz
RH
9 2 3 6 8 10 12 12 11 10 8 9 9 9 8 7 7 6 4 11 30 24 20 17 20 25 26 22 23 30 33 34 33 27 27 22 20 21 21 24 26 26 30 45
7 2 3 5 7 8 10 11 11 9 8 8 8 7 6 6 6 5 3 18 25 20 19 19 20 18 23 28 31 29 28 27 25 28 25 23 19 19 20 21 22 28 31 44
5 2 3 5 6 7 9 10 10 9 8 8 7 6 6 6 5 4 4 20 25 23 22 20 20 24 28 31 26 25 24 23 24 25 22 20 19 19 20 25 25 22 25 28
5 3 4 6 6 6 8 10 11 10 8 6 7 6 5 5 4 4 5 18 24 16 16 16 18 23 29 26 20 20 18 20 20 22 21 20 20 18 17 18 25 26 28 30
7 4 4 6 6 7 8 10 12 10 8 8 8 6 5 4 4 4 6 20 25 15 10 11 16 19 23 22 16 17 17 19 20 20 20 20 20 19 17 16 20 28 30 37
10 6 5 6 7 7 8 10 10 10 8 8 7 5 5 4 4 5 6 22 22 22 15 15 18 23 19 16 14 15 15 18 20 20 21 21 20 20 18 16 18 25 29 35
13 9 6 5 6 6 7 8 11 10 9 8 7 5 5 4 4 4 4 10 23 32 28 14 14 17 18 18 16 15 15 16 18 21 21 20 20 19 19 18 18 25 33 37
42 12 9 6 5 5 5 5 7 9 8 7 6 5 4 4 4 4 4 20 33 32 30 19 15 16 16 18 16 16 17 18 20 21 21 21 20 20 20 19 20 30 39 39
57 44 16 9 7 4 4 5 7 8 7 5 5 5 4 4 4 4 8 17 27 36 32 21 14 16 16 16 17 18 18 20 20 21 22 20 19 18 19 20 21 28 32 48
71 54 44 30 12 7 6 5 5 5 4 4 4 4 4 4 4 4 6 11 18 31 30 22 17 17 17 17 18 19 19 20 20 22 21 20 21 19 21 22 25 28 30 48
92 74 53 41 36 24 9 6 4 4 4 4 4 5 5 4 4 6 9 11 19 28 32 27 18 17 19 16 17 19 19 20 22 21 21 20 20 19 22 26 28 30 40 53
86 91 84 57 41 32 29 21 11 6 6 6 5 5 6 6 4 5 14 16 27 23 29 24 20 19 19 19 18 19 20 22 23 23 23 25 24 26 30 28 31 40 50 57
64 76 74 76 67 39 31 28 26 20 13 9 6 7 10 15 14 12 15 20 22 22 27 28 22 20 20 20 20 21 21 21 21 22 25 39 43 35 31 32 34 48 57 66
45 58 60 59 61 56 42 31 27 26 24 19 15 13 16 16 15 15 21 24 20 20 28 28 24 24 20 20 21 20 26 27 29 24 28 31 32 35 34 36 53 57 57 75
40 54 58 58 57 55 50 38 27 28 28 24 23 20 23 23 21 22 23 23 26 26 25 23 25 24 26 21 20 20 31 27 29 34 57 37 39 40 41 58 60 64 83 86
26 32 42 50 52 48 44 41 36 32 31 28 24 28 29 28 26 25 25 23 22 23 26 26 24 27 26 19 17 19 25 41 57 58 44 48 45 45 66 69 75 84 94 90
19 20 24 29 29 30 35 38 42 43 38 32 28 25 26 34 29 28 32 35 36 30 25 21 24 24 22 18 18 30 45 56 48 50 52 44 43 58 68 71 81 91 95 85
19 18 21 24 24 23 21 22 24 28 32 34 27 21 29 39 35 36 39 38 41 29 27 22 27 30 36 24 41 47 49 52 49 46 41 39 44 60 82 85 88 91 87 84
49 78 72 37 21 23 24 24 24 24 21 16 16 25 39 45 50 62 68 69 65 52 45 51 47 37 33 46 46 45 44 56 60 61 73 83 84 88 93 99 98 96 95 95
100 100 100 93 92 68 55 49 62 73 64 46 28 24 21 29 36 47 59 65 65 56 49 52 38 26 29 53 66 63 66 75 83 88 94 94 91 86 96 100 100 100 100 94
100 95 92 94 100 99 97 92 81 72 55 47 49 60 56 40 40 49 51 39 37 29 25 35 25 31 65 70 82 83 78 83 87 94 100 100 99 95 96 100 100 99 99 98
99 91 97 100 100 100 100 81 77 74 67 58 58 65 83 88 99 100 98 88 80 81 76 77 65 65 69 75 72 72 76 82 94 100 100 100 100 100 100 100 100 100 100 100
99 89 99 100 100 100 92 75 68 62 57 54 61 79 94 98 100 100 100 100 91 85 84 77 70 74 81 84 78 78 77 84 92 97 100 100 100 100 100 100 100 100 99 96
65 60 93 100 100 96 88 73 66 54 56 65 72 78 81 84 94 100 100 100 94 92 85 80 91 93 90 83 84 85 87 87 98 100 100 100 100 100 100 100 99 95 86 62
76 62 60 61 88 100 99 99 97 96 89 77 73 77 84 87 99 100 100 100 100 100 100 98 94 92 90 92 97 100 100 100 100 100 100 100 100 100 100 98 85 67 46 32
40 77 93 97 100 100 100 100 100 100 99 100 100 100 100 100 98 100 100 100 100 100 99 99 100 100 100 100 100 100 100 100 100 100 100 100 98 93 75 50 36 31 34 34
8 8 17 38 78 100 100 100 100 100 100 100 100 100 100 100 100 100 100 100 100 100 100 100 100 100 100 100 100 100 99 99 100 98 94 86 67 42 30 28 34 34 34 29

GFSNW_500_rhum_021.txt.gz
RH
14 27 46 42 8 8 12 18 16 14 14 8 10 16 12 11 11 9 8 6 10 18 16 9 9 10 15 14 22 18 24 29 32 29 24 23 22 20 19 16 15 15 15 16
16 37 44 30 7 8 15 19 17 14 13 7 9 10 11 14 10 8 7 6 22 30 24 21 19 18 17 25 20 22 30 32 32 30 25 27 24 20 18 16 16 16 16 16
23 45 41 20 7 9 15 20 16 14 11 7 9 10 11 12 9 7 6 5 22 25 22 23 22 22 26 20 21 28 30 34 31 28 28 27 25 21 19 17 16 17 18 17
33 47 38 16 7 9 13 18 16 14 9 7 9 9 10 10 9 6 5 4 14 24 24 25 25 27 26 24 26 32 30 29 26 24 23 22 21 20 20 19 19 19 19 19
45 47 30 14 7 10 13 17 17 14 12 11 10 9 9 9 7 5 4 4 8 29 27 26 22 27 26 28 32 31 28 26 22 20 20 20 20 20 20 20 21 21 20 19
48 54 28 13 8 10 14 17 17 15 11 9 9 10 10 9 7 5 5 4 5 16 32 20 22 23 25 29 33 32 27 23 18 16 17 17 17 19 20 21 22 22 20 19
53 57 16 10 8 10 14 17 16 15 11 10 11 10 10 9 8 6 5 4 5 9 23 28 22 17 18 24 30 33 31 25 19 17 18 16 19 20 21 21 22 22 21 20
60 36 11 8 7 9 13 15 15 15 14 13 12 9 9 8 7 7 5 5 4 5 12 22 28 30 21 18 21 28 31 33 30 24 21 20 19 21 22 22 22 23 23 22
59 16 10 7 6 10 11 13 13 13 13 12 11 9 8 9 8 8 6 5 4 4 4 7 16 22 29 31 25 20 24 29 32 32 29 22 20 22 24 24 21 24 24 22
73 22 10 6 6 9 11 11 12 12 11 11 10 9 9 8 8 8 7 6 5 4 5 5 5 8 15 21 27 28 24 24 27 30 27 20 25 25 26 23 24 24 24 22
56 14 10 8 8 10 11 9 9 11 10 10 10 12 11 9 9 8 8 7 6 5 5 5 6 6 7 9 14 23 28 25 26 27 26 20 27 26 25 24 25 25 24 22
87 19 12 10 8 9 9 9 8 8 8 10 10 12 13 12 11 10 9 7 6 5 5 5 5 6 6 9 10 23 30 42 37 35 32 30 28 25 24 25 26 25 23 30
76 68 49 13 10 9 8 8 9 8 8 8 8 9 9 10 8 8 8 7 5 4 4 5 7 8 10 13 14 20 33 41 36 34 35 33 29 28 27 27 24 24 29 46
92 65 44 43 23 14 11 10 8 8 8 8 8 7 6 6 6 7 7 6 5 4 5 6 6 14 16 17 17 18 28 36 39 29 36 33 31 33 30 24 24 32 43 47
92 74 66 54 39 28 21 14 10 9 8 6 6 6 5 6 6 6 6 6 7 8 8 10 12 12 14 11 12 16 32 43 37 28 32 26 24 25 28 34 38 41 46 49
100 98 85 73 60 53 46 35 28 25 20 17 14 14 12 13 14 16 20 21 20 18 17 16 16 21 20 13 14 26 44 38 34 27 28 30 36 46 49 49 49 50 62 67
92 98 100 100 97 90 82 72 66 57 47 38 31 26 26 25 26 28 29 29 30 28 26 24 26 29 26 19 18 50 46 45 48 52 55 57 59 51 49 51 66 77 75 78
62 72 78 85 88 82 78 74 69 63 60 60 58 56 57 55 52 49 46 41 37 34 34 33 37 32 36 29 56 54 57 57 62 63 60 55 44 40 64 84 80 77 77 75
33 38 42 42 44 45 54 58 54 45 39 32 31 35 39 40 44 45 47 44 37 32 31 40 42 34 29 50 46 44 46 43 36 32 34 47 56 56 73 87 92 94 82 84
60 41 33 29 32 39 38 38 29 26 26 25 24 27 25 29 28 28 29 30 28 22 24 28 26 26 31 36 43 57 59 51 48 66 79 80 79 87 96 94 95 100 100 100
100 95 71 49 38 35 31 27 23 21 18 15 16 22 25 27 33 56 77 75 73 59 54 67 57 54 65 72 76 76 78 80 85 88 82 79 82 93 99 100 100 100 100 100
99 75 68 60 47 42 44 44 45 40 30 23 26 35 41 51 79 98 92 91 78 65 65 66 53 52 63 69 69 71 75 81 86 87 86 87 90 100 100 100 100 100 100 100
95 83 67 42 37 37 35 30 34 48 68 83 99 100 100 99 100 100 100 100 94 90 81 74 64 68 71 70 71 75 76 76 76 75 76 81 91 100 100 100 100 100 100 100
100 100 100 100 86 71 62 68 79 84 92 98 100 100 100 100 100 100 100 100 100 92 79 70 73 73 74 68 72 76 79 79 77 76 82 97 100 100 100 100 100 100 100 100
100 100 100 87 86 84 83 90 96 98 100 100 100 99 96 96 98 97 97 98 95 84 78 77 76 82 88 84 79 78 82 89 94 96 100 100 100 100 100 100 100 100 100 96
100 100 100 100 100 99 99 100 99 99 100 98 94 90 86 83 81 78 80 84 83 93 99 99 97 93 92 96 98 100 100 100 100 95 94 97 100 100 100 100 100 93 81 60
100 100 100 100 100 100 100 97 100 98 97 99 99 97 100 100 100 100 100 100 100 100 100 100 100 100 100 100 100 100 100 100 100 100 100 100 100 100 97 86 58 40 30 25

GFSNW_500_rhum_024.txt.gz
RH
52 54 24 28 45 28 10 10 11 16 17 17 14 11 26 14 13 13 10 8 6 6 7 8 7 7 8 12 14 16 17 27 26 32 34 22 20 21 22 18 16 16 16 15
63 67 16 40 46 14 12 10 14 15 15 13 11 12 23 15 13 11 8 8 8 22 22 14 8 8 9 14 15 18 22 24 30 31 27 25 25 27 23 20 18 18 17 16
67 63 22 46 42 11 13 14 16 15 14 12 9 22 19 13 14 11 8 7 8 31 29 22 16 16 16 17 17 22 23 30 31 33 30 30 31 30 26 22 19 19 18 17
75 37 31 46 33 12 13 13 14 13 12 9 8 14 12 13 13 10 8 6 7 29 29 26 26 21 20 19 25 21 27 30 32 30 27 28 27 26 23 21 20 20 19 19
58 24 49 40 27 12 13 14 14 15 13 13 10 9 10 12 11 9 6 5 6 21 32 25 24 25 25 25 23 24 31 32 31 28 26 23 21 20 20 20 20 20 19 20
46 29 61 36 22 12 12 14 17 18 14 14 10 8 10 12 12 10 7 5 5 9 29 24 23 23 23 23 24 27 30 28 27 22 22 19 17 18 18 18 19 19 20 21
48 47 65 28 17 12 14 16 19 18 15 14 12 9 10 11 11 10 8 5 5 5 11 25 19 17 18 18 22 24 29 31 26 23 21 16 14 15 17 19 23 22 22 22
36 67 54 22 15 12 14 16 19 20 18 17 14 11 11 12 11 10 9 7 5 5 5 9 23 26 21 17 15 19 23 26 30 29 24 18 20 21 20 22 26 25 23 23
36 73 46 18 14 11 13 14 18 20 20 17 16 12 12 12 10 11 10 9 7 5 4 5 5 13 22 24 24 26 23 19 20 22 21 15 18 24 27 26 18 27 25 24
53 67 43 16 12 10 13 14 14 19 21 18 15 14 14 13 11 11 11 9 8 7 6 5 4 5 5 8 14 26 31 33 31 29 24 17 21 23 27 26 27 24 27 26
67 65 59 15 11 9 14 31 16 19 20 20 17 16 14 13 12 12 12 10 8 8 7 6 6 5 6 6 8 10 12 17 22 28 28 24 34 34 34 32 30 28 28 26
86 83 14 12 10 17 50 24 16 17 18 18 16 15 14 12 12 11 10 10 9 8 8 8 6 5 4 4 4 7 9 16 15 18 20 27 31 34 35 34 31 29 30 32
99 75 14 13 11 56 95 63 32 15 16 14 14 13 12 11 11 12 15 14 12 11 10 8 8 6 6 5 5 6 12 16 16 18 32 34 33 28 30 30 32 34 35 34
100 67 16 15 18 56 98 97 60 23 18 15 14 13 12 11 11 11 11 11 11 9 7 7 8 7 6 4 4 4 8 15 20 16 28 27 31 34 36 33 32 31 30 38
100 99 49 20 17 16 56 88 56 30 19 13 12 11 9 8 8 9 9 8 7 6 6 7 6 5 5 6 7 11 22 34 26 21 27 23 26 30 34 34 38 45 54 56
99 97 97 100 91 49 17 13 13 13 12 11 10 10 9 9 9 8 8 7 7 7 9 10 10 17 17 14 16 30 35 35 33 27 30 32 38 42 47 53 61 62 54 48
100 98 83 70 61 46 30 22 24 17 12 12 9 9 10 10 12 15 18 20 23 23 23 23 24 25 26 25 26 45 43 44 50 52 50 53 62 58 59 54 46 42 47 54
100 98 98 86 77 73 65 53 44 37 35 29 24 27 34 41 42 40 40 39 38 37 40 43 42 41 38 34 39 48 54 58 61 60 55 45 40 39 37 45 73 86 84 89
100 100 100 100 100 100 100 100 97 88 77 72 71 74 75 74 73 65 57 49 43 38 34 34 34 29 25 24 27 33 36 36 35 36 57 75 78 71 69 88 93 91 91 98
100 100 100 99 100 100 100 100 90 79 69 59 57 62 57 62 60 50 38 33 30 28 24 24 23 24 35 47 51 69 80 78 80 84 86 89 86 91 100 100 94 89 90 100
95 86 86 88 89 91 84 62 48 42 36 37 43 49 50 46 33 30 25 21 22 18 21 38 44 57 69 69 81 87 85 85 87 91 90 86 89 92 90 87 87 90 96 100
51 49 48 48 46 41 33 26 26 24 23 25 35 44 40 33 33 30 28 27 24 25 33 48 54 62 79 83 82 80 79 79 76 76 81 86 89 88 82 78 86 100 100 100
96 95 94 96 93 85 77 60 42 37 36 44 45 46 61 61 79 91 92 86 78 84 81 77 71 80 84 81 77 75 73 70 65 62 59 61 67 72 88 98 100 100 100 100
100 100 99 96 85 70 61 58 62 58 53 49 52 54 79 99 100 100 100 99 96 86 81 81 87 89 85 80 78 76 74 72 74 82 86 82 92 100 100 100 100 100 100 100
100 100 96 85 85 83 83 81 77 76 74 83 93 100 100 100 100 99 98 99 92 88 95 92 88 88 84 83 80 82 82 81 79 78 82 91 94 93 94 95 100 100 100 100
100 94 90 89 91 91 90 87 90 90 90 89 91 98 99 100 100 99 100 97 92 96 97 97 96 93 90 90 89 86 86 87 91 94 98 100 100 100 100 100 100 93 78 53
96 95 100 100 100 100 100 100 100 100 100 100 100 100 100 99 100 100 100 100 100 100 100 100 98 95 95 96 100 100 100 100 100 100 100 100 99 88 66 52 33 20 16 15

GFSNW_500_rhum_027.txt.gz
RH
26 42 46 25 27 21 26 32 18 9 12 13 19 23 20 14 13 10 12 13 13 13 13 14 13 11 10 8 9 11 13 15 17 20 25 30 28 20 21 22 19 17 16 16
79 96 66 45 34 24 39 31 9 13 10 17 20 18 13 14 13 13 13 10 8 7 10 10 8 7 7 8 10 12 16 17 25 26 28 27 22 21 22 22 21 21 19 18
82 100 53 71 31 38 40 12 11 12 13 20 18 12 12 23 13 13 11 8 7 12 26 24 13 7 6 8 14 15 16 20 27 30 30 26 24 26 26 26 25 23 21 20
100 84 70 58 45 42 25 12 12 10 14 17 14 11 24 16 14 13 10 8 7 11 31 30 22 15 13 14 15 16 19 23 28 29 29 25 22 26 27 27 25 21 21 20
100 73 78 39 52 35 14 14 14 14 19 18 12 10 31 19 14 14 11 8 6 9 29 30 25 24 22 20 18 18 21 22 27 28 26 24 24 23 22 22 21 20 19 19
77 75 59 39 49 31 13 16 16 19 20 16 11 13 28 18 14 13 11 8 6 7 22 28 26 25 25 22 20 21 20 22 27 24 25 22 16 20 20 20 19 18 17 19
55 68 44 48 47 27 17 17 20 21 19 16 12 11 12 12 14 13 12 11 6 5 7 20 24 22 21 19 19 20 21 23 26 26 23 17 17 20 22 22 21 20 21 23
71 67 42 60 42 26 17 21 23 24 21 18 14 11 10 10 13 13 13 12 8 6 5 6 12 26 21 15 14 15 18 20 20 20 20 17 20 21 24 24 22 28 29 29
78 50 59 62 67 27 18 21 23 24 23 18 19 14 10 11 12 13 12 12 11 9 6 6 5 5 10 18 23 25 22 20 20 19 20 18 19 23 24 23 19 25 23 24
50 58 78 94 85 23 30 23 23 27 22 22 19 15 14 14 12 14 14 12 12 10 9 8 7 6 5 5 7 11 15 15 16 18 18 11 23 28 26 24 22 23 28 33
54 74 98 98 34 22 18 20 29 35 24 24 20 19 16 16 14 15 15 13 11 10 10 9 8 8 7 7 8 9 10 10 12 14 14 14 15 15 15 14 17 22 28 34
67 87 97 61 23 20 17 22 36 24 25 24 23 21 19 18 15 16 15 13 11 11 11 10 9 8 9 9 8 8 7 8 8 8 10 14 12 13 15 18 25 31 31 34
76 89 99 26 19 18 16 33 66 34 32 23 24 23 22 20 18 16 15 13 13 12 11 11 11 11 10 9 8 8 8 9 8 7 19 15 11 10 13 16 22 29 33 32
63 84 97 25 19 21 37 47 58 62 35 20 21 23 22 21 19 17 14 13 12 11 12 12 12 11 9 7 6 7 8 8 10 10 14 13 17 20 23 27 29 31 34 39
98 94 25 21 66 74 100 100 64 70 46 22 21 22 20 19 17 15 13 12 11 11 10 9 9 8 7 6 6 11 22 19 18 18 25 24 26 28 29 32 38 44 49 55
100 91 27 32 92 100 100 100 100 65 45 35 26 24 24 22 18 16 15 12 9 8 8 8 7 7 7 7 12 31 31 30 32 32 36 39 43 48 50 54 63 63 60 52
96 78 40 41 64 86 94 99 100 100 99 78 55 39 29 22 17 14 12 10 10 9 8 8 10 15 19 21 28 40 43 43 44 43 41 46 45 47 47 42 40 58 76 73
100 100 100 97 91 72 64 64 58 54 40 30 16 15 17 18 16 14 14 13 12 14 18 22 29 34 43 44 48 47 44 45 46 44 42 39 44 50 55 76 84 82 79 82
100 100 100 92 77 63 55 48 39 30 27 24 26 27 39 34 41 42 42 44 44 48 51 54 49 43 39 34 30 28 28 37 47 51 73 92 89 82 78 79 84 86 85 89
100 100 100 99 98 89 74 68 62 57 58 58 67 86 90 91 89 81 70 59 49 40 37 35 33 32 31 30 30 46 75 86 81 79 91 94 91 89 87 89 89 91 94 96
100 99 100 100 100 100 100 100 100 100 100 100 100 100 100 98 83 77 64 53 44 41 34 32 27 23 27 35 52 75 95 100 100 96 90 87 86 85 84 85 88 92 94 86
100 100 100 100 100 100 95 83 82 87 97 100 99 91 71 53 46 38 31 30 28 26 33 43 44 49 70 89 94 100 99 96 94 92 92 91 90 89 87 82 77 76 82 91
96 100 100 100 97 82 73 65 60 52 47 41 41 41 38 37 41 42 51 64 65 69 66 70 81 92 95 92 91 90 89 87 85 82 79 76 76 77 78 82 95 100 100 100
100 88 67 50 47 47 51 66 88 98 99 98 98 96 83 63 65 70 70 67 70 76 80 90 94 87 80 77 80 83 84 82 80 80 82 81 80 75 73 74 82 93 100 100
100 98 99 89 90 91 98 100 100 87 72 65 61 60 60 66 73 86 94 98 94 94 98 96 93 94 92 89 87 88 91 90 87 78 69 65 73 89 100 100 100 100 98 86
100 93 91 94 99 100 100 100 100 100 100 100 100 100 100 100 100 100 100 100 100 100 98 92 89 91 94 94 83 67 46 34 39 60 85 98 100 100 98 88 65 36 22 20
100 100 99 96 96 97 95 93 95 99 100 100 100 100 100 100 99 100 100 100 99 98 92 89 75 48 20 9 7 9 13 40 89 100 100 99 68 51 46 34 24 24 18 16